Погода в Мужичье

Россия / Воронежская область     50°43′51″N   41°03′55″E
темп.,
°C
ветер,
м/с
пор.,
м/с
влажн.,
%
обл.,
%
осадки,
мм/ч
давл.,
гПа
погр.,
м
9 марта, вт
вт900:00−3сз2391100 0.1 1009153
03:00−5с128981 0.1 100924
06:00−5сз129049 0.0 101040
09:00−4сз248874 0.1 1011390
12:00−4с5683100 0.7 1013535
15:00−5ссз577694 0.8 1014902
18:00−7ссз468298 0.1 1016676
21:00−8ссз578999 0.4 1019688
10 марта, ср
ср1000:00−10ссз5883100 0.1 1020752
03:00−11сз478498 0.1 1022682
06:00−11сз5886100 0.1 1023813
09:00−11сз6880100 0.1 1025803
12:00−10ссз5770100 0.0 1026903
15:00−10ссз576492 0.0 1026972
18:00−11ссз46700 0.0 1027661
21:00−13ссв477713 0.0 1028358
11 марта, чт
чт1100:00−16ссв468316 0.0 1029367
03:00−17ссв35838 0.0 1031303
06:00−19ссв35870 0.0 1032268
09:00−17св34770 0.0 1033343
12:00−14св44600 0.0 1033515
15:00−12св44600 0.0 1033599
18:00−13ссв35760 0.0 1032396
21:00−15св34810 0.0 1034266
12 марта, пт
пт1200:00−15св23830 0.0 1035218
03:00−16всв23850 0.0 1035194
06:00−16всв23870 0.0 1035153
09:00−14всв23750 0.0 1036239
12:00−10вюв33620 0.0 1036478
15:00−8вюв33580 0.0 1034682
18:00−9вюв35710 0.0 1034165
21:00−10юв47820 0.0 1035243
13 марта, сб
сб1300:00−10ююв37800 0.0 1035202
03:00−10ююв497548 0.0 1035279
06:00−10ююв5974100 0.0 1034321
09:00−8ю6106099 0.0 1034610
12:00−5ю694695 0.0 1034838
15:00−4ю694276 0.0 1032897
18:00−5ю495017 0.0 1030353
21:00−6ю5115337 0.0 1030388